dimanche 06 janvier 2019

   
ALLURE LIBRE LU RAID ADJALÉ - SUXY
DISTANCE 6.00 km
dimanche 06 janvier 2019
 
Place dos NOM Temps Temps/km Vitesse
01:00:00          
1 6 RENARD NICOLAS 00:26:00 04:20 13.85
2 24 CAMBRAI JÉRÔME 00:28:04 04:41 12.83
3 5 LIÉGEOIS PASCAL 00:28:29 04:45 12.64
4 25 DURRÉ ROMAIN 00:28:32 04:45 12.62
5 60 LEGRAND JOACKIM 00:29:04 04:51 12.39
6 109 PIERRARD CHRISTOPHE 00:29:44 04:57 12.11
7 49 PERIN MAXIME 00:29:46 04:58 12.09
8 103 LORGE THIBAULT 00:30:01 05:00 11.99
9 28 REMY JOACKIM 00:30:10 05:02 11.93
10 31 PIERRARD THOMAS 00:30:24 05:04 11.84
11 13 LALLEMAND PASCAL 00:31:10 05:12 11.55
12 140 LEONARD TIMOTHÉE 00:32:23 05:24 11.12
13 130 HUBERT MAXIME 00:32:45 05:28 10.99
14 70 COLLETTE MARTIN 00:32:57 05:30 10.93
15 16 STEPANOV SERGUEI 00:33:00 05:30 10.91
16 89 THIRY GERALD 00:33:12 05:32 10.84
17 14 MOTCH REGINAL 00:33:48 05:38 10.65
18 105 BRACONNIER STEPHANE 00:34:22 05:44 10.48
19 8 PAQUET DAVID 00:34:25 05:44 10.46
20 26 HARTMANN EMILIE 00:34:35 05:46 10.41
21 631 COLLIGNON BRANDON 00:34:40 05:47 10.38
22 66 WELVAERT JULES 00:34:56 05:49 10.31
23 111 THERER ROMAIN 00:35:03 05:50 10.27
24 15 ISTACE ANNE 00:35:06 05:51 10.26
25 40 PIRLOT CHRISTOPHE 00:35:17 05:53 10.20
26 53 LEJEUNE FLORIANE 00:35:18 05:53 10.20
27 36 BANCU ESTEBAN 00:35:36 05:56 10.11
28 37 BANCU ERIC 00:35:42 05:57 10.08
29 27 LOBET PATRICK 00:36:32 06:05 9.85
30 58 BORBOUSE RÉMY 00:36:36 06:06 9.84
31 30 VAN DEWIELE BRUNO 00:36:58 06:10 9.74
32 69 ROBLAIN TANGUY 00:37:10 06:12 9.69
33 2 MALARTRE ERIC 00:37:16 06:13 9.66
34 22 DÉ KEYN FABIAN 00:37:16 06:13 9.66
35 20 THILL VINCENT 00:37:22 06:14 9.63
36 32 TOUILLAUX DOMINIQUE 00:37:34 06:16 9.58
37 11 OLIVIER SÉVERINE 00:37:40 06:17 9.56
38 12 GILLARD JULIEN 00:37:40 06:17 9.56
39 76 DEOM MANON 00:37:48 06:18 9.52
40 77 MALOY NATHAN 00:37:48 06:18 9.52
41 65 DEOM CHRISTIAN 00:37:50 06:18 9.52
42 64 DABE FABIENNE 00:37:56 06:19 9.49
43 43 HUBERT MATHIAS 00:38:02 06:20 9.47
44 18 LACOURT VINCENT 00:38:36 06:26 9.33
45 54 PIERRET CLÉMENCE 00:38:36 06:26 9.33
46 83 FORTAIN CYRIL 00:38:38 06:26 9.32
47 68 SEGERS PIERRE 00:38:39 06:27 9.31
48 93 THIMOTHEE KEVIN 00:39:03 06:30 9.22
49 67 PIERRARD MARION 00:39:10 06:32 9.19
50 120 HABAY DIMITRI 00:39:11 06:32 9.19
51 9 THIRY DORIAN 00:39:12 06:32 9.18
52 10 THIRY CÉDRIC 00:39:13 06:32 9.18
53 35 RALBEUR JEAN-MARIE 00:39:13 06:32 9.18
54 126 MESQUIN SULIVAN 00:39:29 06:35 9.12
55 94 PAQUET MICHEL 00:39:41 06:37 9.07
56 78 BAIJOT JEAN-PHILIPPE 00:39:45 06:37 9.06
57 119 SCHMELER CLEMENT 00:40:08 06:41 8.97
58 100 THIRY JEAN-MARC 00:40:13 06:42 8.95
59 142 LALLEVARD COLIN 00:40:14 06:42 8.95
60 38 FINEUSE EMILE 00:40:28 06:45 8.90
61 117 FOSSOUL VALÉRIE 00:40:28 06:45 8.90
62 56 THIRY ERIC 00:40:30 06:45 8.89
63 63 DEROANNE BERTRAND 00:40:47 06:48 8.83
64 141 REMY ESTEBAN 00:40:51 06:48 8.81
65 131 CARLIER CÉLINE 00:40:59 06:50 8.78
66 80 TURBANG RAPHAEL 00:41:15 06:52 8.73
67 136 DAMOISEAUX FABIENNE 00:41:26 06:54 8.69
68 137 THIRY FLORENCE 00:41:26 06:54 8.69
69 134 HOLLANGE CHRISTIANE 00:41:27 06:55 8.69
70 113 PAQUOT SANDRINE 00:41:28 06:55 8.68
71 19 SCHELFHAUT SYLVIE 00:41:31 06:55 8.67
72 21 THIRY HUBERT 00:41:31 06:55 8.67
73 124 VINCENT FRANÇOIS 00:41:31 06:55 8.67
74 139 TOUNOIRT ERIC 00:41:47 06:58 8.62
75 92 SALMON TOM 00:41:56 06:59 8.59
76 96 HUBERT EMELINE 00:41:59 07:00 8.57
77 4 HALIN LORIC 00:42:04 07:01 8.56
78 87 PERRANG YANNIK 00:42:04 07:01 8.56
79 88 PERRANG GREGORY 00:42:05 07:01 8.55
80 84 FORTAIN FRÉDÉRIC 00:42:06 07:01 8.55
81 90 SCHUMACKER CHRISTOPHE 00:42:06 07:01 8.55
82 118 LEMAIRE GUY 00:42:15 07:02 8.52
83 48 OGER VERONIQUE 00:42:16 07:03 8.52
84 73 HAYEN KATRIN 00:42:32 07:05 8.46
85 98 GFFLOT KEVIN 00:42:40 07:07 8.44
86 33 HALLET NADINE 00:42:46 07:08 8.42
87 143 BAGUETTE LENNY 00:42:56 07:09 8.39
88 51 LOUPPE PHILIPPE 00:43:03 07:10 8.36
89 41 PIRLOT ALICE 00:43:07 07:11 8.35
90 102 DEBAUCHERON THIERRY 00:43:14 07:12 8.33
91 101 PHILLIPART QUENTIN 00:43:19 07:13 8.31
92 39 HALLET CLEMENT 00:43:47 07:18 8.22
93 74 SCHROEDER SOPHIE 00:43:49 07:18 8.22
94 75 MATHELIN ALISON 00:43:50 07:18 8.21
95 114 TOCHE ELODIE 00:43:50 07:18 8.21
96 104 DOUMONT YANNICK 00:44:06 07:21 8.16
97 34 TOUILLAUX SACHA 00:44:09 07:22 8.15
98 86 MILLARD PIERRE 00:44:17 07:23 8.13
99 122 LOUPPE PIERRE 00:44:30 07:25 8.09
100 123 LOUVIAUX ARNAUD 00:44:30 07:25 8.09
101 129 LOUVIAUX BRUNO 00:44:30 07:25 8.09
102 110 THERER AYLAN 00:44:47 07:28 8.04
103 133 BOUSSARD ANTOINE 00:45:05 07:31 7.99
104 95 NEVEU ELODIE 00:45:30 07:35 7.91
105 72 OTH ALEXIA 00:45:32 07:35 7.91
106 62 MARCHAL DUNEAN 00:45:33 07:35 7.90
107 61 MICHAËLIS MÉLIA 00:45:34 07:36 7.90
108 47 WIENDERS AUGUSTINE 00:45:45 07:37 7.87
109 59 CHEPPE BENJAMIN 00:45:46 07:38 7.87
110 7 RENVEZ MIREILLE 00:45:48 07:38 7.86
111 79 BERGMANN STANY 00:45:50 07:38 7.85
112 107 MOLITOR FRAÇOISE 00:46:22 07:44 7.76
113 108 MOLITOR PASCALINE 00:46:22 07:44 7.76
114 50 COLLIN ERICA 00:46:27 07:44 7.75
115 106 FALZONE CLAUDIA 00:46:35 07:46 7.73
116 1 CARLIER FABIENNE 00:46:41 07:47 7.71
117 85 BEVER MATHILDE 00:47:12 07:52 7.63
118 45 PLETAIN JULIA 00:47:19 07:53 7.61
119 82 PENNING JEAN-FRANÇOIS 00:47:23 07:54 7.60
120 55 COLLARD LAURENT 00:47:44 07:57 7.54
121 99 AYMAIN NOA 00:48:01 08:00 7.50
122 44 BREYER SOPHIE 00:49:15 08:13 7.31
123 125 RENOY BERNADETTE 00:49:49 08:18 7.23
124 91 LARZILLIERE DAMIEN 00:49:59 08:20 7.20
125 144 DAVID AUDREY 00:49:59 08:20 7.20
126 57 ROBLAIN BÉNÉDICTE 00:50:17 08:23 7.16
127 112 CHEVALIER MARIE-LINE 00:50:22 08:24 7.15
128 138 LEQUEUX PASCALE 00:50:25 08:24 7.14
129 132 GOFFETTE HÉLOÏSE 00:51:08 08:31 7.04
130 135 THIRY FRANCIS 00:51:16 08:33 7.02
131 121 BREVERY ROBERT 00:51:21 08:33 7.01
132 29 BRIANNE BENJAMIN 00:51:35 08:36 6.98
133 23 ANTONIAK NATHALIE 00:51:39 08:37 6.97
134 71 REMY KEVIN 00:53:30 08:55 6.73
135 81 BOUSCHET MARC 00:54:18 09:03 6.63
136 42 SIMON ARIANE 00:55:05 09:11 6.54
137 46 SIBRET STEPHANE 00:55:05 09:11 6.54
138 52 ROMAIN EMILIE 00:56:26 09:24 6.38
139 115 VINCENT ROMANE 00:57:14 09:32 6.29
140 116 GILSON ROMAIN 00:57:14 09:32 6.29
141 17 BARTHAUX NORAH 00:58:14 09:42 6.18
142 127 AUDRIT SOPHIE 00:58:22 09:44 6.17
143 128 PANICHELLI JACKY 00:58:22 09:44 6.17
144 97 DUPONT JORDANE 00:59:06 09:51 6.09
145 3 LAURENT PHILIPPE 01:18:00 13:00 4.62